[sarex] 2 Line ISS Keps 10-14

Dave Larsen PhD doc at volcano.net
Fri Oct 13 19:35:12 PDT 2006


ISS
1 25544U 98067A   06286.79175926  .00007163  00000-0  47269-4 0  8558
2 25544 051.6355 296.4287 0013245 093.0617 256.5874 15.76856335451866


More information about the SAREX mailing list